This is the latest recevied weather packets stored in our database for station/object W4BOD. If no packets are shown the sender has not sent any weather packets the latest 10 day(s).
| Time | Temp. | Humidity | Pressure | Rain* | Wind** | Luminosity | Snow |
|---|---|---|---|---|---|---|---|
| 1777360792 | 21.67° C | 93% | 1011.8 hPa | 0 mm | - | 0 W/m² | - |
| 1777360490 | 21.67° C | 94% | 1011.6 hPa | 0 mm | - | 0 W/m² | - |
| 1777360186 | 21.67° C | 93% | 1011.2 hPa | 0 mm | - | 0 W/m² | - |
| 1777359883 | 21.67° C | 94% | 1011.5 hPa | 1.27 mm | - | 0 W/m² | - |
| 1777359580 | 21.67° C | 94% | 1011.3 hPa | 1.27 mm | - | 0 W/m² | - |
| 1777359276 | 21.67° C | 94% | 1011.1 hPa | 0 mm | - | 0 W/m² | - |
| 1777358974 | 21.67° C | 94% | 1011.1 hPa | 0 mm | - | 0 W/m² | - |
| 1777358672 | 21.67° C | 94% | 1011.3 hPa | 0 mm | - | 0 W/m² | - |
| 1777358369 | 21.67° C | 94% | 1011.7 hPa | 0 mm | - | 0 W/m² | - |
| 1777358067 | 21.67° C | 94% | 1011.8 hPa | 0 mm | - | 0 W/m² | - |
| 1777357765 | 21.67° C | 94% | 1011.9 hPa | 0 mm | - | 0 W/m² | - |
| 1777357461 | 22.22° C | 93% | 1012.1 hPa | 0 mm | - | 0 W/m² | - |
| 1777357157 | 22.22° C | 93% | 1012.7 hPa | 0 mm | - | 0 W/m² | - |
| 1777356855 | 22.22° C | 92% | 1012.7 hPa | 1.78 mm | - | 0 W/m² | - |
| 1777356552 | 22.78° C | 90% | 1012.2 hPa | 0 mm | - | 0 W/m² | - |
| 1777356249 | 22.78° C | 89% | 1012.6 hPa | 0 mm | - | 0 W/m² | - |
| 1777355945 | 22.22° C | 91% | 1012.5 hPa | 1.27 mm | - | 0 W/m² | - |
| 1777355643 | 22.22° C | 91% | 1013.3 hPa | 1.27 mm | - | 0 W/m² | - |
| 1777355340 | 21.67° C | 93% | 1012.1 hPa | 0 mm | - | 0 W/m² | - |
| 1777355035 | 21.11° C | 98% | 1012.4 hPa | 0 mm | - | 0 W/m² | - |
| 1777354731 | 21.11° C | 98% | 1011.9 hPa | 0 mm | - | 0 W/m² | - |
| 1777354427 | 21.11° C | 98% | 1011.6 hPa | 0 mm | - | 0 W/m² | - |
| 1777354124 | 21.67° C | 97% | 1011.9 hPa | 0 mm | - | 0 W/m² | - |
| 1777353820 | 21.67° C | 96% | 1012.4 hPa | 0 mm | - | 0 W/m² | - |
| 1777353518 | 21.67° C | 94% | 1012.4 hPa | 0 mm | - | 0 W/m² | - |
* Rain latest hour (hover to see other rain measurements)
** Current wind speed in m/s (hover to see current wind gust speed)